Other Public Products
Issued by NWS Grand Forks, ND

Home | Current Version | Previous Version | Graphics & Text | Print | Product List | Glossary On
Versions: 1 2 3 4 5 6 7 8 9 10 11 12 13 14 15 16 17 18 19 20 21 22 23 24 25 26 27 28 29 30 31 32 33 34 35 36 37 38 39 40 41 42 43 44 45 46 47 48 49 50
000
FPUS83 KFGF 281031
OPUFGF
PRAIRIE TO PINES WEATHER ROUNDUP
NATIONAL WEATHER SERVICE EASTERN NORTH DAKOTA/GRAND FORKS ND
500 AM CDT SAT MAY 28 2016

 **SATELLITE DATA USED TO AUGMENT SKY COVER AT AUTOMATED STATIONS**
 *****  WEATHER ACROSS EASTERN NORTH DAKOTA  *****

CITY           SKY/WX    TMP DP  RH WIND       PRES   REMARKS
GRAND FORKS    CLOUDY    62  56  80 SE7       29.82S
GRAND FORKS AF CLOUDY    59  59 100 S1        29.83R
GRAND CITY NWS   N/A     59 N/A N/A E7          N/A
BUXTON           N/A     59  59  98 NE2         N/A
DEVILS LAKE    CLOUDY    55  55 100 NE8       29.87S
FARGO          PTCLDY    59  56  89 NE5       29.80F
WAHPETON ARPT  CLOUDY    57  54  88 NE5       29.80R
$$

 *****  WEATHER ACROSS CENTRAL AND WESTERN NORTH DAKOTA  *****

CITY           SKY/WX    TMP DP  RH WIND       PRES   REMARKS
JAMESTOWN      CLOUDY    58  57  97 N5        29.81S FOG
BISMARCK       CLOUDY    56  56 100 N8        29.85S FOG
MINOT          CLOUDY    56  53  90 N6        29.89R
MINOT AFB      CLOUDY    54  52  95 NE8       29.88S
GARRISON         N/A     57  54  89 E6        29.87R
WILLISTON      CLOUDY    56  52  86 E7        29.88S
DICKINSON      PTCLDY    45  42  89 CALM      29.84S
HETTINGER      CLOUDY    42  40  92 CALM      29.87S
$$

 *****  OTHER OBSERVATIONS NORTHEAST NORTH DAKOTA  *****

CITY           SKY/WX    TMP DP  RH WIND       PRES   REMARKS
WALHALLA       FAIR      57  57 100 N8        29.86R FOG
LANGDON        FOG       55  55 100 N10       29.86S VSB<1/4
CAVALIER       CLOUDY    57  57 100 N6        29.85R FOG
GRAFTON        FAIR      59  59 100 E6        29.85S
CANDO          CLOUDY    54  54 100 NE10      29.90R
FORT TOTTEN    NOT AVBL
ROLLA          CLOUDY    50  50 100 N13       29.90S FOG
RUGBY          PTSUNNY   54  54 100 NE12      29.87S
 ***** THE ABOVE OBSERVATIONS ARE NON NWS ARE NOT QUALITY
        CONTROLLED AND MAY MIS-REPORT RAIN FOR SNOW...
$$

 *****  OTHER OBSERVATIONS SOUTHEAST NORTH DAKOTA *****

CITY           SKY/WX    TMP DP  RH WIND       PRES   REMARKS
COOPERSTOWN    NOT AVBL
VALLEY CITY    CLOUDY    57  57 100 CALM      29.83S
OAKES            N/A    N/A N/A N/A MISG        N/A
GWINNER        CLOUDY    59  57  94 N7        29.80R
SHEYENNE NWR     N/A     58  58 100 NE5       29.95S
BUFFALO          N/A     43  56 100 NE5         N/A
WYNDMERE         N/A     59  57  94 CALM        N/A
 ***** THE ABOVE OBSERVATIONS ARE NON NWS ARE NOT QUALITY
       CONTROLLED AND MAY MIS-REPORT RAIN FOR SNOW...
$$

  *****  WEATHER ACROSS NORTHERN MINNESOTA  *****

CITY           SKY/WX    TMP DP  RH WIND       PRES   REMARKS
FLAG ISLAND    PTCLDY    57  55  94 NE3       29.86R
WARROAD        MOCLDY    57  54  88 NE3       29.86S
ROSEAU         CLOUDY    55  52  88 NE7       29.85S
HALLOCK        CLOUDY    61  57  88 E6        29.83F
THF RVR FALLS  CLOUDY    57  54  88 NE3       29.85S
HALSTAD        NOT AVBL
FOSSTON        CLOUDY    54  52  94 N3        29.84R
BAUDETTE       CLOUDY    58  53  84 NE3       29.84S
WASKISH        LGT RAIN  57  54  88 CALM      29.84F
CROOKSTON      CLOUDY    59  57  94 CALM      29.84S
$$
  *****  WEATHER ACROSS CENTRAL AND WEST MINNESOTA  *****

CITY           SKY/WX    TMP DP  RH WIND       PRES   REMARKS
BEMIDJI        MOCLDY    55  53  94 N5        29.82S
PARK RAPIDS    CLOUDY    58  53  84 N3        29.81R
WADENA         CLOUDY    55  54  94 N3        29.80S
DETROIT LAKES  PTCLDY    55  54  94 NE3       29.83R
MOORHEAD       CLOUDY    57  55  94 NE3       29.82S
FERGUS FALLS   MOCLDY    57  57 100 CALM      29.77R
ELBOW LAKE     FAIR      57  55  95 E5        29.78F
MORRIS MN      CLOUDY    57  55  94 NE7       29.77R
STAPLES        CLOUDY    55  55 100 NE3       29.80R
WHEATON        CLOUDY    59  57  94 N3        29.80S
$$
  *****  WEATHER ELSEWHERE ACROSS MINNESOTA  *****

CITY           SKY/WX    TMP DP  RH WIND       PRES   REMARKS
DULUTH         DRZL/FOG  48  47  96 SE5       29.79R VSB 3/4
INTRNTL FALLS  CLOUDY    57  54  89 CALM      29.84S
ELY            RAIN      55  54  94 NE5       29.79S
CLOQUET        CLOUDY    48  46  93 CALM      29.80R FOG
BRAINERD       CLOUDY    56  55  97 NE6       29.79S FOG
HIBBING        CLOUDY    53  53 100 N6        29.78F FOG
ALEXANDRIA     CLOUDY    58  55  90 NE5       29.79S
SAINT CLOUD    CLOUDY    57  56  96 N5        29.78R
MINNEAPOLIS    CLOUDY    62  59  90 N5        29.75F
$$

  *****  WEATHER ACROSS SOUTH DAKOTA  *****

CITY           SKY/WX    TMP DP  RH WIND       PRES   REMARKS
SIOUX FALLS    RAIN      62  60  93 E5        29.73R FOG
BROOKINGS      CLOUDY    60  59  96 NE9       29.74S FOG
WATERTOWN      CLOUDY    60  58  92 NE7       29.75F FOG
HURON          CLOUDY    59  57  93 N7        29.75S
SISSETON         N/A     60  57  89 NE7       29.77S
ABERDEEN       CLOUDY    60  57  89 NE6       29.78F
MITCHELL       TSTM      60  59  96 NW9       29.76R FOG
PIERRE         CLOUDY    57  53  86 CALM      29.79R
MOBRIDGE       MOCLDY    54  50  86 NW5       29.80R
RAPID CITY     CLEAR     44  41  89 NW9       29.87S
$$

  *****  SOME WEATHER IN NEARBY STATES *****

CITY           SKY/WX    TMP DP  RH WIND       PRES   REMARKS
GLASGOW MT     PTCLDY    50  48  93 S3        29.85R
GREAT FALLS MT MOCLDY    41  33  73 W9        29.95S
CHEYENNE WY    CLEAR     43  34  70 NW5       29.97S
SCOTTSBLUFF NE CLEAR     41  39  93 N6        29.91S
OMAHA NE       CLOUDY    63  59  87 S10       29.73R
DES MOINES IA  CLOUDY    63  60  90 S3        29.74S
DAVENPORT IA   CLOUDY    67  64  90 S13       29.77R
CHICAGO IL     CLOUDY    69  64  84 S12       29.85S
EAU CLAIRE WI  FOG       61  61 100 CALM      29.75S VSB 1/2
LA CROSSE WI   LGT RAIN  68  66  93 N5        29.71F
$$

  *****  SOME NATIONAL WEATHER *****

CITY           SKY/WX    TMP DP  RH WIND       PRES   REMARKS
LA GUARDIA NY  MOCLDY    73  63  70 SW8       30.10R
RALEIGH NC     PTCLDY    60  58  92 CALM      30.16S
ATLANTA GA     PTCLDY    67  59  75 SE3       30.11R
NEW ORLEANS LA CLOUDY    75  71  87 SE13      29.96F
OKLAHOMA CITY  PTCLDY    62  61  96 S7        29.84S
ALBUQUERQUE NM CLEAR     56  31  38 N5        30.02R
SALT LAKE CITY MOCLDY    56  47  71 SE7       29.98R
LOS ANGELES CA CLOUDY    61  55  81 SW6       29.84F
BOISE ID       PTCLDY    47  31  53 NW6       30.03R
SEATTLE WA     CLOUDY    51  44  77 S13       30.12F
$$

*** WEATHER ACROSS MANITOBA...SASKATCHEWAN AND ONTARIO ***
                ***ONTARIO***

CITY           SKY/WX    TMP DP  RH WIND       PRES   REMARKS
GERALDTON      LGT RAIN  59  57  94 NE10      29.94F FOG
THUNDER BAY    LGT RAIN  57  57 100 NE15G23   29.82S FOG
SIOUX LOOKOUT  CLOUDY    55  55 100 VRB5      29.90F FOG
TORONTO        MOCLDY    68  61  77 CALM      30.04R
BIG TROUT LK   LGT RAIN  36  36 100 E9        30.18S
PICKLE LAKE    NOT AVBL
DRYDEN         CLOUDY    57  55  94 NE10      29.88S
KENORA         CLOUDY    57  57 100 NE7       29.89R
$$
                *** MANITOBA***

CITY           SKY/WX    TMP DP  RH WIND       PRES   REMARKS
BRANDON        LGT RAIN  52  50  93 NE15      29.92S FOG
DAUPHIN        CLOUDY    48  45  87 N13       29.98F
ISLAND LAKE    DRIZZLE   41  39  93 NE10      30.14S
PILOT MOUND      N/A     54  52  94 N9          N/A
THE PAS        CLOUDY    45  39  81 E7        30.09S
THOMPSON       LGT RAIN  37  34  87 E5        30.20F
WINNIPEG       LGT RAIN  55  55 100 NE12      29.89S FOG
LYNN LAKE      CLOUDY    37  34  87 SE13      30.16S
CHURCHILL      FLURRIES  28  27  93 S10       30.37S WCI  19
$$
                ***SASKATCHEWAN***

CITY           SKY/WX    TMP DP  RH WIND       PRES   REMARKS
ESTEVAN        LGT RAIN  52  50  93 E8        29.91F FOG
KINDERSLEY     CLOUDY    54  52  94 SE6       29.83F
LLOYDMINSTER   LGT RAIN  54  52  94 SE7       29.83F
PRINCE ALBERT  CLOUDY    46  43  87 SE14      29.97S
REGINA         CLOUDY    50  48  93 E14       29.93S
YORKTON        CLOUDY    46  45  93 N9        29.98S
N. BATTLEFORD  MOCLDY    54  52  94 E16G23    29.87F   C1F1C2F2C3F3C4F4C5F5C6F6C7F7C8F8C9F9CaFaCbFbCcFcCdFdCe!



USA.gov is the U.S. government's official web portal to all federal, state and local government web resources and services.